Location: Isola Pescaroli
(45.0500°N, 10.1667°E)
Time: 21:10:31
(UTC+00:00)

Cosmos 1992 Rocket - Pass Details

Date: 03 March 2021
Orbit: 759 x 765 km, 74.0° (Epoch: 17 April)

Event Time Altitude Azimuth Distance (km) Brightness Sun altitude
Rises 17:46:45 0° 185° (S) 3,215 7.3 -7.4°
Reaches altitude 10° 17:49:09 10° 181° (S) 2,294 6.5 -7.8°
Maximum altitude 17:54:12 53° 105° (ESE) 936 4.1 -8.7°
Drops below altitude 10° 17:59:17 10° 30° (NNE) 2,307 6.2 -9.6°
Sets 18:01:42 0° 26° (NNE) 3,236 7.0 -10.0°
